Regional Weather Roundup
Issued by NWS Charleston, WV

Home | Current Version | Previous Version | Graphics & Text | Print | Product List | Glossary On
Versions: 1 2 3 4 5 6 7 8 9 10 11 12 13 14 15 16 17 18 19 20 21 22 23 24 25 26 27
000
ASUS41 KRLX 101310
RWRRLX
West Virginia Regional Weather Roundup
National Weather Service Charleston WV
800 AM EST SUN DEC 10 2017

Note: "fair" indicates few or no clouds below 12,000 feet with no
significant weather and/or obstructions to visibility.

WVZ003-101400-
Northern Panhandle of West Virginia

CITY           SKY/WX    TMP DP  RH WIND       PRES   REMARKS
WHEELING       CLOUDY    27  20  75 SW10G20   30.01R
$$

WVZ009-101400-
Northwest West Virginia

CITY           SKY/WX    TMP DP  RH WIND       PRES   REMARKS
PARKERSBURG    CLOUDY    28  21  75 W3        30.12R
$$

WVZ006-101400-
Western West Virginia

CITY           SKY/WX    TMP DP  RH WIND       PRES   REMARKS
HUNTINGTON     CLOUDY    29  19  66 SW10      30.15R
$$

WVZ015-101400-
West Central West Virginia

CITY           SKY/WX    TMP DP  RH WIND       PRES   REMARKS
CHARLESTON     CLOUDY    29  21  72 SW9       30.14R
$$

WVZ022-031-101400-
North Central West Virginia

CITY           SKY/WX    TMP DP  RH WIND       PRES   REMARKS
CLARKSBURG     CLOUDY    29  19  66 W8        30.06R
MORGANTOWN     CLOUDY    29  19  66 W5        30.03R
$$

WVZ025-035-042-045-101400-
Southern West Virginia

CITY           SKY/WX    TMP DP  RH WIND       PRES   REMARKS
BECKLEY        CLOUDY    23  17  78 W9        30.05R
LOGAN          CLOUDY    27  19  74 CALM      30.11R
BLUEFIELD      CLOUDY    21  15  78 W12       30.04R WCI   9
LEWISBURG      FLURRIES  25  19  77 W7        30.04R
$$

WVZ047-101400-
Northern Mountains of West Virginia

CITY           SKY/WX    TMP DP  RH WIND       PRES   REMARKS
ELKINS         FLURRIES  25  20  81 W9G20     30.02R
$$

WVZ052-101400-
Eastern Panhandle of West Virginia

CITY           SKY/WX    TMP DP  RH WIND       PRES   REMARKS
MARTINSBURG    CLOUDY    33  20  58 W10       29.99R
PETERSBURG     CLOUDY    31  20  63 W12G18    30.02R
$$




USA.gov is the U.S. government's official web portal to all federal, state and local government web resources and services.